{"data":{"norad_id":43824,"intl_designator":"2018-100B","name":"GSAT-11","alt_names":[],"object_type":"PAYLOAD","status":"ACTIVE","operator":null,"country":"IND","launch_date":"2018-12-04","launch_site_code":"FRGUI","launch_vehicle":null,"mission":null,"orbit_class":"UNKNOWN","rcs_meters":null,"size_class":null,"mass_kg":null,"dimensions":null,"purposes":["comms"],"wikipedia_slug":null,"has_3d_model":false,"image_url":null,"decayed_at":null,"tle_current":{"epoch":"2026-09-20T01:52:37.579872Z","epoch_age_seconds":58337,"freshness":"FRESH","line1":"1 43824U 18100B   26263.07821273 -.00000081  00000+0  00000+0 0  9998","line2":"2 43824   0.0637 268.9948 0006568 210.9354 341.2104  1.00272288 28425","mean_motion":1.00272288,"eccentricity":0.0006568,"inclination_deg":0.0637,"raan_deg":268.9948,"arg_perigee_deg":210.9354,"mean_anomaly_deg":341.2104,"bstar":0,"rev_number":2842,"period_min":1436.0897000775,"perigee_km":35758.760249283,"apogee_km":35814.147655958,"semimajor_km":42164.590952621,"source":"CELESTRAK","updated_at":"2026-09-20T09:00:35.264051Z"}}}